Regional Weather Roundup
Issued by NWS Charleston, SC

Home | Current Version | Previous Version | Text Only | Print | Product List | Glossary On
Versions: 1 2 3 4 5 6 7 8 9 10 11 12 13 14 15 16 17 18 19 20 21 22 23 24 25 26 27 28 29 30 31 32 33 34 35 36 37 38 39 40 41 42 43 44 45 46 47 48 49 50
000
ASUS42 KCHS 011228
RWRCHS

REGIONAL WEATHER ROUNDUP
NATIONAL WEATHER SERVICE CHARLESTON SC
800 AM EDT SAT OCT 01 2016

NOTE: "FAIR" INDICATES FEW OR NO CLOUDS BELOW 12,000 FEET WITH NO
SIGNIFICANT WEATHER AND/OR OBSTRUCTIONS TO VISIBILITY.

NOT ALL STATIONS ARE QUALITY CONTROLLED. USE DATA WITH CAUTION...
ESPECIALLY DEWPOINT OBSERVATIONS.

SCZ027-030-031-034>040-042>050-011300-
...SOUTHEAST SOUTH CAROLINA...

CITY           SKY/WX    TMP DP  RH WIND       PRES   REMARKS
N CHARLESTON   MOCLDY    65  59  81 E6        30.06R
6HR MIN TEMP:  64; 6HR MAX TEMP:  68;

WATERFRONT PRK   N/A     72  64  76 N5        30.04R
MOUNT PLEASANT PTSUNNY   66  64  94 CALM      30.07R
JOHNS ISLAND   PTSUNNY   68  61  77 N6        30.07R
PINOPOLIS        N/A     73  57  56 VRB3      29.98R
MONCKS CORNER  FAIR      59  59 100 CALM      30.07R
SUMMERVILLE    FAIR      61  61 100 CALM      30.08
BEAUFORT MCAS  MOCLDY    65  56  72 N6        30.07R
6HR MIN TEMP:  62; 6HR MAX TEMP:  67;

BEAUFORT ARPT  PTSUNNY   64  57  77 N5        30.06R
HILTON HEAD IS PTCLDY    70  59  68 N7        30.07R
WALTERBORO     MOSUNNY   63  63 100 CALM      30.09R
ALLENDALE      FAIR      57  55  94 CALM      30.08R

...SOUTHERN MIDLANDS AND PEE DEE...

CITY           SKY/WX    TMP DP  RH WIND       PRES   REMARKS
GEORGETOWN     PTSUNNY   64  64 100 CALM      30.08S
KINGSTREE        N/A     57  55  94 CALM      30.08R
ORANGEBURG     PTCLDY    55  54  96 CALM      30.08R
6HR MIN TEMP:  54; 6HR MAX TEMP:  61;

BARNWELL       NOT AVBL
AIKEN          FAIR      52  48  87 CALM      30.12R
MANNING        FAIR      54  54 100 CALM      30.08R
COLUMBIA       PTCLDY    55  51  86 W3        30.08R
6HR MIN TEMP:  53; 6HR MAX TEMP:  60;

SUMTER         PTCLDY    57  53  87 CALM      30.05R
6HR MIN TEMP:  55; 6HR MAX TEMP:  61;

FLORENCE       CLEAR     58  56  93 CALM      30.07R
6HR MIN TEMP:  58; 6HR MAX TEMP:  64;

MYRTLE BEACH   MOCLDY    70  55  60 N7        30.08R
N MYRTLE BEACH CLOUDY    69  64  84 CALM      30.07R
6HR MIN TEMP:  63; 6HR MAX TEMP:  71;


$$

GAZ063-065-086>088-099>101-113>116-118-119-134>141-150-011300-
...SOUTHEAST GEORGIA...

CITY           SKY/WX    TMP DP  RH WIND       PRES   REMARKS
SAVANNAH ARPT  MOCLDY    64  54  69 N5        30.07R
6HR MIN TEMP:  62; 6HR MAX TEMP:  67;

HUNTER AAF     PTCLDY    66  57  72 VRB7      30.04R
6HR MIN TEMP:  62; 6HR MAX TEMP:  67;

FORT STEWART   CLEAR     60  53  76 CALM      30.04S
6HR MIN TEMP:  58; 6HR MAX TEMP:  62;

STATESBORO     CLEAR     57  57  98 CALM      30.08S
SYLVANIA       NOT AVBL
CLAXTON        FAIR      55  55 100 CALM      30.08S

...CSRA...CENTRAL AND FAR SOUTHEAST GEORGIA...

CITY           SKY/WX    TMP DP  RH WIND       PRES   REMARKS
THOMSON        CLEAR     51  51 100 CALM      30.14S
AUGUSTA-BUSH   CLEAR     53  51  93 CALM      30.08R
6HR MIN TEMP:  49; 6HR MAX TEMP:  54;

AUGUSTA-DANIEL CLEAR     59  52  77 CALM      30.10R
SWAINSBORO       N/A     54  50  87 CALM      30.10R
VIDALIA        CLEAR     59  57  94 CALM      30.09S
EASTMAN        FAIR      51  50  99 CALM      30.12S
HAZLEHURST     FAIR      57  57 100 CALM      30.08R
ALMA           PTCLDY    55  53  93 N3        30.07R
6HR MIN TEMP:  52; 6HR MAX TEMP:  57;

WAYCROSS       PTCLDY    60  58  91 CALM      30.07S
JESUP          CLOUDY    63  57  82 N5        30.07R
BAXLEY         FAIR      55  55 100 CALM      30.08R
BRUNSWICK      CLOUDY    68  59  73 CALM      30.07R
SAINT SIMONS   CLOUDY    69  56  62 N6        30.04S
6HR MIN TEMP:  69; 6HR MAX TEMP:  73;


$$

SCZ027-028-034-036>038-045-046-048>050-GAZ119-141-011300-
...LAKE AND SUPPLEMENTAL COASTAL OBSERVATIONS...

STATION/POSITION TIME  TEMP    WIND        PRES    WAVE   SWELL
                       AIR SEA DIR/SP/G            HT/PER HT/PER/DIR
                 (UTC) (F)     (DEG/KT/KT) (MB)    (FT/S) (FT/S/D)
WINYAH BAY       1145   70     330/  4     1017.0R
LAKE MURRAY      1150   65      CALM  /  1 1018.3R
ACE BASIN NERRS  1145   64        CALM     1018.0S
FORT PULASKI     1200   69 81  350/  6/  8 1018.2
SAPELO ISLAND    1200   71     360/  7     1017.0

$$

ANZ835-935-AMZ111-154-330-350-352-354-370-450-454-472-011300-
...C-MAN AND BUOY OBSERVATIONS...

STATION/POSITION TIME  TEMP    WIND        PRES    WAVE   SWELL
                       AIR SEA DIR/SP/G            HT/PER HT/PER/DIR
                 (UTC) (F)     (DEG/KT/KT) (MB)    (FT/S) (FT/S/D)
BUOY 41004       1150   77 82   40/ 14/ 16 1016.7S   2/11   2/ 80/11
BUOY 41008       1150   78 82   10/ 12/ 16 1016.7R   2/ 4   2/ 90/10
FOLLY BEACH CMAN 1200   74      20/  8/  9 1018.1R
CAPERS NEARSHORE 1208   78 81   40/ 10/ 14 1017.5R
FRIPP NEARSHORE  1108   75 81   20/ 14/ 16 1016.9F


STATION/POSITION TIME  TEMP    WIND        PRES    WAVE   SWELL
                       AIR SEA DIR/SP/G            HT/PER HT/PER/DIR
                 (UTC) (F)     (DEG/KT/KT) (MB)    (FT/S) (FT/S/D)
5E ST. MARYS GA  1201      82                N/A     2/ 3
FRYING PAN BUOY  1210   79 82  160/ 12/ 16 1018.3
BUOY 41025       1150   81 83  200/ 16/ 19 1018.4R   6/11   5/ 50/11
CAPE LOOKOUT NC  1200   78     170/ 17/ 19 1017.5S
BUOY 41002       1150   81 83  150/  8/ 12 1018.7R   6/10   5/ 10/10
BUOY 41010       NOT AVBL
ST AUGUSTINE FL  1200   71 82  310/  6/  7 1018.0R


$$




USA.gov is the U.S. government's official web portal to all federal, state and local government web resources and services.